Regional Weather Roundup
Issued by NWS

Home | Current Version | Previous Version | Text Only | Print | Product List | Glossary Off
Versions: 1 2 3 4 5 6 7 8 9 10 11 12 13 14 15 16 17 18 19 20 21 22 23 24 25 26 27 28 29 30 31 32 33 34 35 36 37 38 39 40 41 42 43 44 45 46 47 48 49 50

000
ASUS43 KIND 172009
RWRIN

WEATHER ROUNDUP FOR INDIANA
NATIONAL WEATHER SERVICE INDIANAPOLIS IN
300 PM EST WED JAN 17 2018

NOTE: "FAIR" INDICATES FEW OR NO CLOUDS BELOW 12,000 FEET WITH NO
SIGNIFICANT WEATHER AND/OR OBSTRUCTIONS TO VISIBILITY.

* - STATION DOES NOT REPORT WEATHER SUCH AS PRECIPITATION OR FOG.

+ - STATION NOT QUALITY CONTROLLED BY THE NATIONAL WEATHER SERVICE.
    USE DATA WITH CAUTION...ESPECIALLY DEWPOINT AND RELATIVE
    HUMIDITY OBSERVATIONS.

INZ001>003-010>013-019-020-172100-
NORTHWEST INDIANA

CITY           SKY/WX    TMP DP  RH WIND       PRES   REMARKS
GARY /AIRPORT/ MOSUNNY   21   9  58 SW13      30.47F WCI   9
KNOX *+        FAIR      18  10  73 W14       30.47F WCI   4
LA PORTE +     FAIR      17  10  74 SW9       30.45F WCI   5
MICHIGAN CITY+ FAIR      23  12  63 SW10      30.44F WCI  12
MONTICELLO +   FAIR      13   6  74 SW9       30.50F WCI   0
RENSSELAER +   FAIR      18  10  73 SW15      30.49F WCI   3
VALPARAISO     FAIR      17  10  74 SW10      30.46S WCI   5

$$

LMZ046-743>745-172100-
SOUTHERN LAKE MICHIGAN

STATION/POSITION TIME  TEMP    WIND        PRES    WAVE
                       AIR SEA DIR/SP/G            HT
                 (UTC) (F)     (DEG/KT/KT) (MB)    (FT)
BURNS HARBOR     1940   21     250/ 14/ 16 1031.5F
MICHIGAN CITY    1940   21     220/ 19/ 24   N/A

$$

INZ004-005-014>016-021>024-172100-
NORTH CENTRAL INDIANA

CITY           SKY/WX    TMP DP  RH WIND       PRES   REMARKS
ELKHART        FAIR      19  10  68 W14       30.42F WCI   6
GOSHEN         FAIR      18   9  68 W16       30.42F WCI   3
LOGANSPORT +   FAIR      14   9  79 SW10      30.50F WCI   1
PERU/GRISSOM   FAIR      14   9  81 W12       30.47F WCI   1
ROCHESTER +    FAIR      18  10  73 SW12      30.47F WCI   5
SOUTH BEND     FAIR      17   8  67 SW14      30.43F WCI   3
WARSAW +       FAIR      18  10  73 SW10      30.44S WCI   6

$$

INZ006>009-017-018-025>027-172100-
NORTHEAST INDIANA

CITY           SKY/WX    TMP DP  RH WIND       PRES   REMARKS
AUBURN +       FAIR      23  10  58 SW12      30.41F WCI  12
FORT WAYNE     FAIR      18  10  71 W17       30.44F WCI   3
HUNTINGTON +   FAIR      17   7  64 SW8       30.45F WCI   7
KENDALLVILLE + FAIR      19  10  67 W16       30.40S WCI   5

$$

INZ028-029-035-036-043>045-051>053-172100-
WEST CENTRAL INDIANA

CITY           SKY/WX    TMP DP  RH WIND       PRES   REMARKS
CRAWFORDSVL +  FAIR      13   7  75 MISG        N/A
GREENCASTLE +  FAIR      19   9  63 SW6       30.53F WCI  11
LAFAYETTE      FAIR      16   9  74 SW8       30.52F WCI   5
TERRE HAUTE    FAIR      15   5  64 SW7       30.58F WCI   5

$$

INZ030>032-037>040-046>048-054>057-064-065-172100-
CENTRAL INDIANA

CITY           SKY/WX    TMP DP  RH WIND       PRES   REMARKS
COLUMBUS       SUNNY     19   9  63 SE6       30.55F WCI  11
FRANKFORT +    FAIR      16  10  77 W12       30.52F WCI   3
GREENWOOD *+   FAIR      19   9  64 W9        30.53S WCI   9
INDIANAPOLIS   FAIR      16   8  71 SW8       30.53F WCI   5
-EAGLE CREEK   FAIR      18   8  65 VRB7      30.51F WCI   9
MARION +       LGT SNOW  14   8  79 CALM      30.49F
MT COMFORT *+  FAIR      19  12  73 W8        30.51S WCI   9
SHELBYVILLE    FAIR      15   7  70 SW6       30.52F WCI   6
ZIONSVILLE +   FAIR      14   7  75 W10       30.51S WCI   1

$$

INZ033-034-041-042-049-050-058-059-172100-
EAST CENTRAL INDIANA

CITY           SKY/WX    TMP DP  RH WIND       PRES   REMARKS
MUNCIE         FAIR      18   9  68 W13       30.48F WCI   5
RICHMOND +     FAIR      14   9  79 SW8       30.47F WCI   3

$$

INZ060-061-067>069-081>083-085>088-172100-
SOUTHWEST INDIANA

CITY           SKY/WX    TMP DP  RH WIND       PRES   REMARKS
EVANSVILLE     FAIR      16   7  67 SW6       30.64F WCI   7
HUNTINGBURG +  FAIR      21   9  59 SW7       30.61F WCI  12
WASHINGTON +   FAIR      13   2  62 W6        30.61F WCI   4

$$

INZ062-063-066-070>080-084-089>092-172100-
SOUTH CENTRAL AND SOUTHEAST INDIANA

CITY           SKY/WX    TMP DP  RH WIND       PRES   REMARKS
BATESVILLE *+    N/A    N/A N/A N/A MISG        N/A
BEDFORD +      FAIR      19   7  58 SW8       30.56F WCI   9
BLOOMINGTON    FAIR      17   7  64 SW9       30.54F WCI   6
FRENCH LICK *+ FAIR      18   5  57 SW5       30.57F WCI  11
MADISON *+     FAIR      19  10  68 SW5       30.57S WCI  13
NORTH VERNON + FAIR      14   9  79 SW3       30.55F
SEYMOUR +      FAIR      19   9  63 S7        30.56F WCI  10

$$





USA.gov is the U.S. government's official web portal to all federal, state and local government web resources and services.